TimeCST,TemperatureF,Dew PointF,Humidity,Sea Level PressureIn,VisibilityMPH,Wind Direction,Wind SpeedMPH,Gust SpeedMPH,PrecipitationIn,Events,Conditions,WindDirDegrees,DateUTC
12:54 AM,45.0,30.0,56,30.05,10.0,SSW,17.3,24.2,N/A,,Clear,210,2013-01-19 06:54:00
1:54 AM,44.1,30.0,58,30.04,10.0,SSW,17.3,24.2,N/A,,Clear,200,2013-01-19 07:54:00
2:54 AM,42.1,30.0,62,30.05,10.0,SSW,13.8,23.0,N/A,,Clear,210,2013-01-19 08:54:00
3:54 AM,39.9,28.9,65,30.04,10.0,SSW,13.8,-,N/A,,Clear,200,2013-01-19 09:54:00
4:54 AM,39.0,28.9,67,30.03,10.0,SSW,11.5,-,N/A,,Clear,200,2013-01-19 10:54:00
5:54 AM,37.9,28.9,70,30.04,10.0,SSW,9.2,-,N/A,,Clear,210,2013-01-19 11:54:00
6:54 AM,37.0,28.9,73,30.06,10.0,SSW,11.5,-,N/A,,Clear,210,2013-01-19 12:54:00
7:54 AM,37.0,28.9,73,30.07,10.0,SW,10.4,-,N/A,,Clear,220,2013-01-19 13:54:00
8:54 AM,39.9,30.0,68,30.08,10.0,SSW,10.4,-,N/A,,Clear,210,2013-01-19 14:54:00
9:54 AM,44.1,30.9,60,30.12,10.0,SW,8.1,-,N/A,,Clear,230,2013-01-19 15:54:00
10:54 AM,48.0,28.0,46,30.12,10.0,WSW,5.8,-,N/A,,Clear,240,2013-01-19 16:54:00
11:54 AM,55.0,27.0,34,30.10,10.0,WNW,9.2,-,N/A,,Clear,290,2013-01-19 17:54:00
12:54 PM,57.0,28.0,33,30.09,10.0,WNW,8.1,-,N/A,,Clear,300,2013-01-19 18:54:00
1:54 PM,59.0,27.0,29,30.09,10.0,NNW,10.4,-,N/A,,Clear,330,2013-01-19 19:54:00
2:54 PM,64.0,25.0,23,30.08,10.0,NNW,9.2,-,N/A,,Clear,340,2013-01-19 20:54:00
3:54 PM,64.0,23.0,21,30.10,10.0,NNW,13.8,-,N/A,,Clear,340,2013-01-19 21:54:00
4:54 PM,60.1,24.1,25,30.13,10.0,North,10.4,-,N/A,,Clear,350,2013-01-19 22:54:00
5:54 PM,50.0,24.1,36,30.17,10.0,NNW,8.1,-,N/A,,Clear,340,2013-01-19 23:54:00
6:54 PM,48.9,24.1,38,30.19,10.0,NNW,5.8,-,N/A,,Clear,330,2013-01-20 00:54:00
7:54 PM,45.0,24.1,44,30.22,10.0,NNW,9.2,-,N/A,,Clear,340,2013-01-20 01:54:00
8:54 PM,44.1,24.1,45,30.24,10.0,North,6.9,-,N/A,,Clear,350,2013-01-20 02:54:00
9:54 PM,39.0,23.0,53,30.24,10.0,NNE,3.5,-,N/A,,Clear,30,2013-01-20 03:54:00
10:54 PM,43.0,24.1,47,30.25,10.0,North,5.8,-,N/A,,Clear,360,2013-01-20 04:54:00
11:54 PM,39.0,23.0,53,30.25,10.0,North,8.1,-,N/A,,Clear,360,2013-01-20 05:54:00